Regional Weather Roundup
Issued by NWS Charleston, SC

Current Version | Previous Version | Graphics & Text | Print | Product List | Glossary On
Versions: 1 2 3 4 5 6 7 8 9 10 11 12 13 14 15 16 17 18 19 20 21 22 23 24 25 26 27 28 29 30 31 32 33 34 35 36 37 38 39 40 41 42 43 44 45 46 47 48 49 50
000 ASUS42 KCHS 230327 RWRCHS REGIONAL WEATHER ROUNDUP NATIONAL WEATHER SERVICE CHARLESTON SC 1100 PM EDT SAT APR 22 2017 NOTE: "FAIR" INDICATES FEW OR NO CLOUDS BELOW 12,000 FEET WITH NO SIGNIFICANT WEATHER AND/OR OBSTRUCTIONS TO VISIBILITY. NOT ALL STATIONS ARE QUALITY CONTROLLED. USE DATA WITH CAUTION... ESPECIALLY DEWPOINT OBSERVATIONS. SCZ027-030-031-034>040-042>050-230400- ...SOUTHEAST SOUTH CAROLINA... CITY SKY/WX TMP DP RH WIND PRES REMARKS N CHARLESTON CLEAR 70 65 84 S9 29.91R WATERFRONT PRK N/A 73 70 90 S12 29.89R JOHNS ISLAND FAIR 73 70 88 S8 29.91S PINOPOLIS N/A 72 64 78 SW5 29.82R MONCKS CORNER FAIR 68 64 88 S5 29.91R SUMMERVILLE FAIR 68 64 88 CALM 29.92R BEAUFORT MCAS CLEAR 73 68 84 S6 29.90R BEAUFORT ARPT FAIR 72 68 88 S9 29.90S HILTON HEAD IS CLEAR 73 70 88 S9 29.92S WALTERBORO CLEAR 70 63 78 S3 29.92R ALLENDALE FAIR 73 64 73 S3 29.89R ...SOUTHERN MIDLANDS AND PEE DEE... CITY SKY/WX TMP DP RH WIND PRES REMARKS GEORGETOWN FAIR 70 68 94 SW7 29.92S KINGSTREE FAIR 68 61 77 SE5 29.90R ORANGEBURG PTCLDY 73 63 70 S9 29.89R BARNWELL FAIR 75 68 78 S8 29.89R AIKEN MOCLDY 68 54 60 CALM 29.92R MANNING FAIR 72 63 73 SW13G26 29.90S COLUMBIA MOCLDY 75 62 64 S7 29.87R SUMTER MOCLDY 74 63 68 S8 29.86R FLORENCE PTCLDY 71 62 73 S6 29.88R MYRTLE BEACH CLEAR 72 67 84 SW7 29.92R N MYRTLE BEACH CLEAR 71 68 90 SW14 29.90R $$ GAZ063-065-086>088-099>101-113>116-118-119-134>141-150-230400- ...SOUTHEAST GEORGIA... CITY SKY/WX TMP DP RH WIND PRES REMARKS SAVANNAH ARPT CLEAR 72 65 78 S12 29.91R HUNTER AAF CLEAR 72 71 95 S6 29.89R FORT STEWART CLEAR 70 64 79 CALM 29.89R STATESBORO CLEAR 74 64 69 S8 29.90S SYLVANIA CLEAR 75 64 69 S5 29.90S CLAXTON FAIR 73 68 86 SE3 29.90S ...CSRA...CENTRAL AND FAR SOUTHEAST GEORGIA... CITY SKY/WX TMP DP RH WIND PRES REMARKS THOMSON PTCLDY 66 60 80 CALM 29.92S AUGUSTA-BUSH PTCLDY 67 58 72 CALM 29.86R AUGUSTA-DANIEL MOCLDY 77 51 40 CALM 29.88R SWAINSBORO MOCLDY 70 59 68 S5 29.90R VIDALIA CLEAR 73 63 68 S6 29.89S EASTMAN MOCLDY 69 52 55 SW5 29.92R HAZLEHURST FAIR 73 61 64 SE6 29.88F ALMA CLEAR 69 63 81 SE3 29.89R WAYCROSS CLEAR 74 69 83 S5 29.90S JESUP FAIR 72 63 73 CALM 29.91S BAXLEY FAIR 70 68 94 CALM 29.90S BRUNSWICK CLOUDY 73 70 88 S8 29.92S SAINT SIMONS PTCLDY 74 67 78 S9G22 29.91R $$ SCZ027-028-034-036>038-045-046-048>050-GAZ119-141-230400- ...LAKE AND SUPPLEMENTAL COASTAL OBSERVATIONS... STATION/POSITION TIME TEMP WIND PRES WAVE SWELL AIR SEA DIR/SP/G HT/PER HT/PER/DIR (UTC) (F) (DEG/KT/KT) (MB) (FT/S) (FT/S/D) WINYAH BAY 0230 72 220/ 8 1012.0S LAKE MURRAY 0230 73 CALM 1010.8R ACE BASIN NERRS 0230 73 180/ 1 1012.0S FORT PULASKI 0300 73 74 200/ 7/ 12 1013.1 SAPELO ISLAND 0230 74 180/ 10 1013.0R $$ ANZ835-935-AMZ111-154-330-350-352-354-370-450-454-472-230400- ...C-MAN AND BUOY OBSERVATIONS... STATION/POSITION TIME TEMP WIND PRES WAVE SWELL AIR SEA DIR/SP/G HT/PER HT/PER/DIR (UTC) (F) (DEG/KT/KT) (MB) (FT/S) (FT/S/D) BUOY 41004 0310 75 73 190/ 16/ 19 1012.5 BUOY 41008 0250 73 72 180/ 12/ 14 1012.5R 3/ 4 2/120/11 FOLLY BEACH CMAN 0300 73 200/ 14/ 16 1013.3R CAPERS NEARSHORE 0308 74 72 210/ 14/ 19 1012.5R FRIPP NEARSHORE 0308 73 74 210/ 10/ 12 1012.7R STATION/POSITION TIME TEMP WIND PRES WAVE SWELL AIR SEA DIR/SP/G HT/PER HT/PER/DIR (UTC) (F) (DEG/KT/KT) (MB) (FT/S) (FT/S/D) 5E ST. MARYS GA 0300 72 N/A 3/ 4 FRYING PAN BUOY 0310 75 74 210/ 16/ 19 1012.6 BUOY 41025 0250 76 75 230/ 21/ 25 1011.4R 6/ 6 3/100/12 CAPE LOOKOUT NC 0300 71 220/ 10/ 14 1011.8R BUOY 41002 0250 72 75 170/ 16/ 17 1015.4F 5/14 3/ 20/14 BUOY 41010 0310 75 76 150/ 16/ 19 1014.0 ST AUGUSTINE FL 0300 74 76 160/ 18/ 21 1013.4R $$

USA.gov is the U.S. government's official web portal to all federal, state and local government web resources and services.